Wind_Speed
15 16 16 15 14 14 14 13 15 15 14 13 11 10 11 10 8 10 10 9 10 10 11 11 6 4 2 6 3 3 4 4 7 9 10 10 10 10 8 8 8 8 9 9 9 12 14 14 14 13 13 12 12 12 12 11 11 11 11 12 12 12 12 11 10 9 8 9 10 8 5 4 2 2 3 4 5 6 9 14 19 22 24 26 28 28 29
15 15 15 15 15 14 15 16 17 16 15 15 15 14 14 13 12 14 14 11 10 9 9 12 11 4 3 5 4 4 6 4 5 9 10 9 9 9 9 10 8 6 8 9 9 12 14 14 14 13 12 12 11 11 11 10 10 10 9 10 11 11 11 10 8 7 7 8 7 6 5 4 2 0 2 4 5 7 12 17 19 21 24 25 24 24 28
12 13 14 15 16 16 16 18 17 16 15 15 14 14 12 11 12 13 12 10 7 7 8 9 10 9 7 8 7 8 9 8 8 8 8 9 11 10 8 9 11 8 7 8 9 11 13 14 14 13 12 11 11 9 8 8 7 8 8 8 8 8 8 8 7 6 6 6 4 5 5 4 3 3 3 3 4 7 11 16 17 17 19 21 21 23 26
8 10 13 15 16 17 17 17 16 16 15 12 12 13 11 10 11 10 9 8 6 6 9 8 9 11 11 10 9 9 10 9 8 9 11 11 10 10 10 6 10 11 8 7 7 10 13 13 12 11 10 10 10 8 7 6 6 6 7 7 7 7 5 5 5 5 5 4 4 5 5 4 6 6 5 5 5 6 8 10 12 12 13 15 16 19 23
8 11 13 13 13 14 12 10 9 11 13 13 13 12 10 9 9 7 6 6 6 9 9 8 8 10 12 12 11 11 11 8 6 7 9 10 8 7 10 6 9 10 7 7 7 8 10 12 12 11 9 9 10 8 7 7 7 7 8 8 7 6 4 3 4 4 3 2 3 6 5 4 5 5 4 5 5 6 6 6 9 11 13 13 13 14 16
8 11 12 12 11 10 7 7 8 9 11 12 11 10 10 11 9 8 8 7 8 10 9 8 7 7 8 11 11 10 10 9 8 9 9 8 6 6 8 3 7 7 7 8 7 5 7 9 9 7 7 8 8 7 6 7 7 7 8 9 9 7 6 5 4 3 2 3 4 5 5 4 3 3 4 5 6 6 6 6 7 9 10 11 12 12 12
8 9 9 10 10 7 7 9 9 9 9 9 10 11 11 11 10 11 12 10 9 11 11 9 8 6 6 7 11 12 10 9 9 9 8 9 10 8 7 4 4 7 11 11 7 5 7 8 5 4 5 7 7 6 6 7 6 5 6 7 8 7 7 5 4 4 4 4 4 3 2 3 3 4 5 6 6 6 6 7 7 8 9 9 11 11 9
7 7 7 9 8 9 11 9 9 9 6 6 8 9 8 9 10 11 10 10 10 11 11 11 9 8 7 6 8 10 8 8 10 10 10 10 10 9 7 8 9 10 11 10 7 7 6 3 1 3 4 6 4 4 5 6 6 6 5 4 5 6 5 4 4 4 5 4 3 1 0 1 3 4 5 6 7 7 7 7 8 9 9 8 9 9 9
6 7 8 9 10 11 9 5 12 11 7 6 4 4 6 9 11 11 9 8 9 10 11 13 12 10 8 6 6 9 9 7 7 9 10 8 9 10 7 8 10 9 6 4 6 6 3 3 3 3 2 1 2 3 4 5 6 6 6 5 5 5 5 4 4 4 4 4 4 3 2 2 4 4 5 6 7 8 9 8 8 9 9 8 7 7 8
6 7 8 8 9 7 2 5 9 9 9 10 8 4 4 7 11 12 10 9 10 10 11 13 13 10 7 4 5 10 14 12 8 8 9 9 8 11 6 3 3 2 1 1 2 2 2 2 3 5 5 3 3 4 5 6 6 6 6 6 5 4 4 4 3 3 4 4 4 4 4 4 4 4 5 7 8 9 10 10 9 8 8 7 6 5 7
7 7 7 7 6 2 4 6 7 9 9 9 8 3 2 9 13 11 9 10 10 11 11 12 10 7 4 3 4 9 14 14 12 9 9 11 10 6 0 3 5 7 4 1 4 8 8 7 6 6 6 5 5 6 7 7 7 7 7 6 5 5 4 4 4 5 5 5 6 6 6 6 5 5 5 7 8 9 11 10 9 10 9 7 5 6 6
7 7 7 6 3 2 7 9 10 10 8 7 6 3 1 9 14 11 10 11 11 10 10 10 8 6 5 4 6 10 12 13 13 12 11 12 14 12 10 8 9 10 8 5 4 7 9 11 10 8 7 7 8 9 8 8 8 9 9 8 8 8 7 7 7 7 7 8 8 8 8 7 6 6 6 7 8 10 12 11 10 10 8 7 7 6 4
7 6 7 5 1 2 5 10 11 11 8 4 3 3 3 8 11 10 10 10 10 9 9 8 6 6 7 8 9 11 12 12 13 14 14 15 15 15 16 17 17 15 13 10 9 10 12 12 10 10 11 11 11 11 10 10 11 11 11 11 10 10 9 10 10 10 10 10 9 8 8 7 7 7 7 8 9 10 12 12 9 5 6 11 11 8 6
6 5 7 6 2 1 4 8 10 8 6 3 3 4 6 8 10 10 10 9 9 9 9 8 8 8 10 12 12 12 13 12 12 14 15 14 14 16 18 19 18 15 14 13 13 15 15 13 13 13 12 13 14 14 12 12 12 12 12 12 12 12 12 12 12 12 12 12 10 9 8 8 9 9 9 9 11 11 12 10 5 8 11 13 13 11 11
5 5 7 6 3 2 5 8 8 6 4 5 5 5 7 9 10 11 10 9 9 9 9 10 10 11 12 12 13 13 13 13 13 15 16 16 16 17 18 19 18 17 17 17 18 18 17 16 16 15 14 14 15 15 16 15 14 14 15 14 14 14 14 14 14 14 14 13 13 12 12 12 12 11 10 10 11 11 9 4 8 13 14 15 15 14 13
3 5 4 1 2 3 7 8 6 5 6 6 7 7 7 8 9 9 9 9 11 11 11 11 12 12 12 13 13 14 15 14 14 15 17 18 19 19 19 20 20 20 19 20 21 21 20 19 18 18 18 17 15 15 16 17 16 17 17 16 16 17 16 16 16 16 15 16 15 15 14 15 15 13 12 12 11 8 5 5 11 15 14 15 16 15 14
2 5 5 3 2 4 6 7 6 8 9 9 9 10 9 9 9 9 9 10 12 12 12 13 12 12 12 13 14 15 16 16 16 17 19 21 22 22 22 22 22 21 21 22 21 21 21 20 20 20 19 18 17 17 18 19 20 21 20 19 19 18 17 17 17 17 17 17 16 16 16 16 16 15 13 11 7 5 5 8 12 13 14 15 16 15 14
6 6 7 7 8 8 8 7 8 9 9 9 10 10 9 9 10 10 9 11 12 13 13 14 13 13 14 15 15 16 16 17 17 19 21 23 24 25 25 25 25 25 24 24 23 22 22 21 22 21 20 20 21 21 21 21 21 20 20 21 20 19 18 18 18 18 17 16 15 16 16 16 17 16 13 9 6 8 9 10 11 11 13 14 15 15 16
7 5 6 8 10 10 11 10 10 9 10 10 11 10 10 11 11 12 12 13 14 15 15 16 16 16 16 17 17 16 16 17 17 19 21 23 25 27 27 26 26 25 24 23 22 21 20 20 20 21 21 22 22 22 21 21 21 21 22 23 23 20 18 18 18 17 18 18 17 17 16 17 17 14 9 8 10 11 11 13 14 13 13 14 15 16 17
6 6 8 10 11 11 10 9 8 8 11 13 13 11 11 12 12 12 13 14 14 14 15 16 18 18 18 18 17 16 15 16 16 18 22 25 26 27 27 27 26 23 21 22 22 21 21 20 20 19 19 21 23 23 23 23 24 24 24 24 24 21 19 19 19 19 20 20 18 16 15 14 12 6 6 10 11 10 11 14 16 16 16 15 15 17 19
6 7 8 9 9 9 9 10 11 11 12 13 13 13 13 13 13 13 13 14 14 14 14 14 14 15 16 16 16 17 16 15 16 19 23 25 27 28 28 27 26 23 22 22 23 23 23 23 22 21 21 22 23 23 24 25 25 24 23 21 20 19 19 20 20 19 20 18 16 14 10 4 3 5 8 11 10 8 9 12 15 16 17 16 16 18 19
5 6 8 9 8 7 8 11 13 13 13 12 13 13 13 13 13 12 13 14 15 15 15 15 13 13 14 15 15 15 15 15 18 22 24 25 26 27 26 25 25 25 23 22 23 24 24 24 23 23 24 25 25 24 24 24 23 23 23 21 19 19 20 19 18 18 18 17 17 15 7 8 9 8 8 10 10 9 10 12 15 17 18 17 17 19 18
6 9 11 10 8 8 9 10 12 12 12 12 12 12 13 13 13 14 14 15 16 16 17 18 17 15 14 16 17 15 15 18 21 23 24 24 24 24 22 20 21 22 23 22 22 23 24 24 24 24 24 24 24 24 24 23 22 22 22 20 20 19 18 17 17 17 16 16 15 10 8 13 12 12 15 16 14 14 15 16 16 17 18 17 16 16 17
9 10 10 8 8 10 11 12 13 12 11 12 12 13 13 13 14 15 14 15 15 15 15 17 18 16 15 16 16 14 14 18 20 21 21 22 22 21 20 18 18 20 21 21 20 20 21 21 22 23 22 23 22 22 22 22 22 22 22 22 21 19 18 19 18 17 17 17 12 8 14 15 14 17 21 23 21 19 18 19 19 18 18 18 17 16 15
8 9 9 8 9 10 10 11 12 11 11 12 12 12 13 13 14 15 14 13 13 13 12 13 15 17 17 17 16 15 15 17 19 18 18 19 20 20 19 19 19 19 19 19 19 19 19 20 21 22 23 23 22 22 22 22 22 23 23 22 22 20 20 20 18 18 18 15 11 14 18 17 16 19 22 23 25 25 23 21 21 20 18 17 17 16 14
7 8 9 9 10 10 8 9 9 11 13 13 11 11 14 14 14 15 14 13 13 14 14 14 16 18 18 18 18 18 18 19 20 20 18 18 18 18 17 18 18 17 18 18 19 19 20 21 22 23 24 25 24 24 25 25 25 25 24 23 24 24 23 21 20 19 17 13 14 19 20 18 17 19 19 21 24 26 25 23 21 20 18 15 14 12 12
6 7 9 10 11 10 10 10 11 12 12 11 9 11 14 15 14 15 14 14 15 16 16 17 18 19 19 19 19 19 19 20 20 19 18 18 18 18 17 17 17 18 19 19 19 19 21 22 23 24 26 27 27 27 27 26 26 26 25 24 23 23 23 23 21 16 12 13 19 23 22 20 19 20 22 23 23 22 22 21 20 19 17 14 12 11 11
7 8 8 9 11 12 11 12 13 11 8 8 9 11 13 13 13 12 11 12 14 15 16 17 19 19 18 19 19 19 18 19 18 18 18 19 19 19 18 18 18 18 18 18 19 20 20 20 21 23 27 29 30 29 28 27 28 28 27 24 22 21 21 20 17 14 13 17 23 25 26 26 25 24 25 25 23 21 20 20 20 18 16 14 13 12 11
7 7 7 8 11 13 12 11 11 7 5 7 10 11 11 11 10 9 9 11 13 13 14 17 19 19 19 20 20 18 17 16 16 17 17 18 18 18 17 17 16 15 15 15 15 15 15 16 19 22 25 26 27 28 27 26 27 28 28 25 23 21 17 15 16 18 20 24 28 29 29 30 30 27 25 23 21 20 19 19 18 17 16 15 15 14 13
8 8 9 9 10 12 12 10 8 7 7 8 9 9 9 9 8 8 9 10 11 12 13 17 19 21 21 22 21 19 18 17 16 16 16 16 15 15 14 13 12 10 8 8 8 10 12 14 17 19 19 19 17 20 23 23 23 24 26 26 25 23 19 17 20 24 27 30 32 32 31 29 28 28 26 22 19 18 18 17 17 15 15 16 16 15 14
10 10 12 10 8 9 10 8 6 6 7 8 8 8 8 8 8 8 9 10 10 11 14 17 19 21 22 24 23 21 19 18 16 16 15 13 12 11 7 1 2 2 3 5 8 11 15 19 21 21 20 17 12 5 10 17 19 19 20 21 23 24 23 24 29 33 34 32 30 31 30 28 27 28 26 22 19 19 18 17 15 13 14 16 16 14 13
11 11 11 10 8 8 9 7 6 7 7 7 7 7 7 7 8 9 9 9 9 11 14 17 19 21 23 24 22 20 19 17 16 17 18 16 15 14 13 12 12 10 9 9 13 17 22 26 27 24 20 18 17 16 11 7 10 12 14 15 17 21 27 34 39 40 37 33 30 29 29 28 28 28 26 23 22 20 18 17 17 17 16 16 15 14 14
9 9 9 9 8 8 8 7 6 6 6 6 7 8 8 8 9 9 9 10 11 12 13 16 19 22 23 21 19 20 20 17 16 19 22 19 15 11 10 12 14 16 17 19 22 26 28 28 26 25 24 23 24 25 25 24 24 26 27 26 27 30 35 40 41 39 36 32 29 27 27 26 26 26 25 23 21 20 19 19 19 17 15 14 14 15 14
7 7 6 5 5 5 5 5 5 5 5 7 8 8 8 9 9 10 10 11 11 12 14 17 20 21 20 18 19 22 22 16 13 15 18 17 13 8 7 11 19 24 27 28 29 29 28 27 26 26 26 26 27 28 29 30 31 32 33 33 33 34 34 35 36 35 32 29 26 24 24 24 24 24 24 22 19 18 18 18 16 14 16 16 15 14 11
6 5 3 3 3 3 4 5 5 5 6 6 6 6 7 8 9 9 9 9 10 11 15 18 18 18 19 19 19 22 22 18 14 14 15 14 13 12 15 21 25 26 29 31 32 29 27 27 28 27 27 28 29 29 29 31 32 32 32 32 32 32 31 31 31 31 29 26 24 23 24 24 23 22 22 22 19 17 16 15 14 18 18 15 12 10 8
5 3 3 3 3 4 5 5 5 6 6 5 5 5 7 9 9 9 8 8 8 11 15 18 17 16 17 17 17 19 21 19 17 17 18 18 17 19 24 28 27 24 24 27 30 30 28 28 28 28 28 28 28 28 28 29 30 30 31 32 31 31 29 28 27 26 24 22 20 20 21 19 16 16 17 17 16 15 13 14 17 20 17 13 12 11 10
4 3 3 3 4 4 4 5 5 5 6 6 6 7 8 9 8 8 8 8 8 10 14 16 15 13 14 16 16 18 22 24 22 22 22 21 21 24 27 27 25 22 19 20 25 28 28 27 26 27 26 26 25 25 25 26 25 25 25 26 25 24 23 21 20 19 18 18 19 20 19 17 16 17 17 18 18 18 17 17 17 17 15 13 11 11 10
2 2 3 3 3 3 3 4 4 5 7 7 7 7 8 8 8 8 8 9 9 10 13 15 13 12 14 16 16 18 23 26 25 23 22 21 23 26 26 25 23 20 17 18 22 26 25 24 24 25 24 23 21 19 20 22 24 24 23 22 22 22 22 22 21 21 21 22 23 23 21 20 19 18 18 19 19 18 17 15 14 14 13 11 10 10 9
3 3 3 1 2 2 3 4 5 5 7 7 8 8 8 9 9 9 9 10 11 12 13 15 14 12 13 14 13 13 18 24 25 23 21 21 22 24 25 24 24 22 19 19 22 24 23 22 22 23 24 22 20 17 15 17 21 23 22 22 22 23 22 23 23 24 23 23 23 22 20 19 18 17 17 16 17 17 16 15 14 12 11 10 10 9 8
4 4 3 2 0 1 2 2 3 4 6 6 7 7 8 8 9 10 10 11 12 12 13 15 15 14 13 14 13 11 13 18 22 24 23 22 21 20 20 22 25 26 25 24 25 26 25 24 24 24 24 23 20 18 16 15 17 20 21 21 21 21 20 20 20 20 20 19 19 19 19 18 17 17 16 15 15 15 14 13 12 11 10 10 9 8 7
4 4 4 2 1 2 3 2 2 4 5 5 5 6 7 8 9 9 10 10 12 12 13 13 14 14 14 14 14 13 12 14 17 20 23 23 20 17 15 18 23 26 26 27 27 28 28 29 28 26 24 23 22 20 18 17 17 19 20 20 20 20 19 19 18 17 16 16 15 15 15 15 16 16 16 15 15 14 13 12 11 10 9 9 8 7 7
5 5 5 3 2 3 5 3 2 3 3 4 4 5 6 7 7 8 9 10 10 11 11 12 13 13 14 14 14 15 15 15 15 17 20 21 20 16 14 15 20 23 24 26 28 30 30 29 28 26 24 24 22 20 19 18 18 18 19 19 19 18 17 17 17 15 15 15 15 14 14 14 15 15 16 15 14 13 12 11 11 10 9 8 8 7 6
6 6 5 4 3 4 5 3 2 2 2 3 4 4 5 5 6 7 7 8 9 10 10 11 11 12 13 14 14 14 15 16 15 15 15 17 20 20 17 15 17 21 21 23 26 29 29 27 26 24 23 23 22 21 20 19 18 18 18 18 17 17 16 16 15 15 14 15 14 14 14 14 15 15 14 14 13 12 12 11 11 10 9 8 7 7 7
8 7 6 5 5 5 6 4 2 2 1 2 3 4 4 4 5 6 7 7 8 9 9 10 11 11 11 12 12 13 14 15 15 14 12 12 15 19 19 17 17 20 20 19 21 24 26 25 24 22 21 21 21 21 20 20 19 18 18 18 17 17 16 15 15 15 15 15 15 15 15 15 15 14 14 14 13 12 12 12 11 9 9 8 7 6 6
8 8 8 6 6 7 8 5 2 0 1 1 1 2 3 4 4 5 6 6 7 8 9 9 10 10 10 10 10 11 12 14 14 13 12 11 11 14 16 17 18 20 21 19 18 21 24 24 22 22 21 20 19 19 19 19 19 18 18 18 17 17 16 15 15 15 14 14 14 14 14 15 15 15 14 14 13 13 12 11 10 9 8 7 7 6 5
8 9 9 7 8 11 10 5 1 1 3 4 2 3 3 3 3 4 5 5 6 7 8 8 9 10 10 10 9 9 10 12 13 13 13 11 10 10 13 15 16 19 22 22 21 21 22 22 22 22 21 20 19 19 18 18 18 18 17 17 17 16 15 15 15 16 16 16 15 15 15 15 15 15 14 14 13 13 12 11 10 9 8 7 7 6 5
8 10 9 9 10 12 9 3 1 2 5 5 2 3 4 2 2 3 5 5 5 6 7 8 8 9 10 10 10 9 8 9 10 11 12 11 10 10 13 14 13 14 18 21 22 21 21 21 21 21 20 19 19 19 18 17 17 17 18 18 17 16 15 14 14 14 15 15 15 15 14 14 14 14 14 13 13 12 11 10 10 9 9 8 7 6 6
9 9 9 9 11 11 8 5 4 6 6 4 2 2 3 2 1 2 3 3 3 5 6 7 7 8 9 10 10 11 10 9 9 9 10 10 10 10 13 14 14 12 13 15 17 19 20 21 21 20 19 19 18 18 18 17 17 16 17 17 17 15 14 13 12 12 13 13 13 13 13 13 13 13 13 13 12 12 11 10 9 9 8 8 7 7 6
9 9 9 10 12 11 8 7 6 7 7 5 4 4 4 3 3 2 2 2 2 4 5 5 6 7 8 8 9 10 10 10 9 8 8 9 9 9 10 13 14 13 12 12 14 16 17 18 19 19 19 18 17 16 16 17 16 16 16 15 15 14 14 13 13 12 12 12 12 12 12 12 12 12 12 12 12 11 11 11 11 10 8 8 8 7 6
10 9 9 10 12 12 9 8 8 8 7 6 5 6 5 5 5 4 4 3 2 3 5 5 6 6 7 7 8 9 9 9 8 8 8 8 8 8 8 9 11 11 11 11 12 14 16 17 18 18 17 17 17 17 16 15 15 15 15 14 14 14 14 14 13 13 12 12 12 12 12 11 11 11 11 11 11 10 10 10 11 10 9 8 8 7 6
10 10 10 11 13 13 11 9 10 10 8 6 6 6 6 5 4 2 4 3 2 2 4 5 5 6 6 7 7 7 7 7 7 7 6 7 7 8 8 9 9 10 11 10 10 11 13 15 17 17 16 15 15 16 15 14 14 14 14 13 13 12 12 12 12 11 11 11 11 11 12 11 10 10 11 10 10 10 9 9 8 8 9 9 9 8 7
11 12 11 12 13 13 12 11 11 11 10 8 7 7 7 6 5 5 5 3 3 2 5 5 5 5 6 6 7 7 7 7 7 7 7 7 7 8 8 9 9 9 10 10 10 10 10 12 14 15 15 14 13 13 13 13 13 13 13 13 13 13 13 13 12 11 11 11 11 11 11 11 10 10 11 10 9 9 9 9 9 8 9 9 9 9 9
Wind_Direction
265 269 274 277 279 280 281 281 279 280 283 282 275 264 265 276 275 272 288 303 294 299 310 306 322 42 316 296 317 289 245 177 159 179 204 207 183 168 164 149 136 132 131 127 123 120 116 113 111 108 106 104 100 98 97 96 96 96 101 107 105 99 99 96 87 83 88 96 103 114 130 144 165 182 169 165 172 195 224 231 233 241 243 239 241 247 254
268 268 272 277 277 278 281 280 274 271 273 276 275 272 269 268 266 270 281 288 284 292 306 306 311 325 268 277 292 267 259 240 203 204 211 219 214 198 178 158 147 144 140 133 129 127 126 126 126 123 120 118 112 105 101 98 97 95 92 96 101 99 99 103 101 97 98 98 99 108 123 130 127 276 246 239 222 221 237 240 241 244 243 238 239 248 257
275 277 282 282 277 275 277 281 282 282 283 285 286 288 287 279 270 273 284 292 296 306 309 309 316 322 300 275 271 271 262 251 252 244 229 236 247 240 211 173 156 152 152 146 138 132 128 127 126 123 123 125 121 114 110 107 105 104 99 96 98 100 103 111 116 111 103 99 90 85 89 85 53 16 348 314 267 254 250 245 247 249 242 237 240 246 250
275 278 277 275 276 276 273 274 282 285 280 276 272 270 273 278 280 287 294 290 295 321 324 324 337 344 335 325 330 326 294 265 262 263 243 234 241 254 256 215 156 152 161 156 140 133 133 133 133 136 142 143 138 134 136 138 131 119 113 112 111 110 109 113 116 110 102 98 87 82 75 48 33 25 7 347 309 282 267 251 251 257 252 248 252 250 244
278 277 278 287 289 279 270 273 288 290 283 278 275 273 280 293 297 296 289 291 329 348 340 334 347 353 346 345 353 348 331 324 336 321 279 249 233 252 268 236 161 156 161 146 132 134 142 142 137 142 148 140 132 133 143 151 150 144 142 141 137 130 122 109 104 105 111 115 94 80 68 44 31 16 341 318 304 294 283 262 252 252 253 257 265 266 255
277 280 289 295 281 265 272 285 283 283 287 288 292 303 315 318 320 316 301 305 341 344 327 318 333 341 338 340 338 331 331 334 339 347 332 301 293 313 306 262 156 142 124 115 108 102 112 108 106 117 125 120 124 138 158 160 157 164 168 158 150 151 149 140 133 138 136 101 77 62 48 33 12 341 318 307 299 287 274 268 264 256 249 246 254 266 270
272 280 285 275 262 265 278 278 282 289 292 297 302 305 309 314 329 334 326 332 344 338 332 334 332 324 327 337 329 324 339 353 344 348 352 335 336 352 2 31 87 99 100 104 101 89 94 97 105 143 142 134 152 176 177 168 164 184 193 168 157 161 158 156 164 160 143 107 79 61 33 10 339 318 309 301 294 282 263 255 261 265 258 245 241 251 267
271 274 265 256 266 284 279 291 347 350 315 292 289 289 306 328 341 345 343 347 344 334 338 342 333 334 350 349 320 313 342 16 5 357 5 7 11 20 39 63 72 76 85 96 95 74 57 49 143 186 145 135 170 192 177 178 187 196 204 193 179 170 160 173 186 160 142 130 116 110 17 326 309 305 305 302 298 290 275 260 259 265 264 253 240 237 247
263 265 263 264 277 284 281 337 28 23 8 6 356 325 330 340 350 353 343 339 341 341 349 352 350 356 3 354 331 336 352 9 5 360 355 4 38 49 37 47 66 69 64 80 99 90 57 338 345 354 25 106 219 235 218 219 216 205 207 218 213 192 182 202 202 169 164 174 176 188 217 248 273 290 298 299 298 293 283 269 262 261 260 261 261 248 234
258 264 266 270 273 279 327 46 48 41 25 14 8 356 343 357 13 13 358 351 358 1 1 359 358 360 357 354 359 357 355 353 359 9 346 340 37 71 76 75 99 161 252 333 332 347 358 347 333 318 304 279 254 253 253 253 248 237 232 234 232 219 214 229 227 203 206 210 203 210 228 244 260 271 282 289 291 289 285 275 265 262 262 262 256 230 208
256 259 262 267 264 287 26 20 23 35 27 359 339 320 1 6 6 5 357 355 359 360 356 353 351 345 339 1 7 350 347 347 347 351 338 332 354 18 324 216 239 259 269 331 307 319 334 319 293 284 286 286 274 263 264 269 267 266 268 270 274 276 272 272 273 260 246 237 235 236 238 242 248 257 273 285 288 287 284 274 262 257 255 243 207 189 193
252 254 259 267 254 62 29 9 2 7 9 358 334 289 359 3 355 355 1 356 349 348 348 344 339 332 328 347 350 337 334 335 333 333 331 330 334 329 312 308 316 324 341 356 317 297 287 276 274 276 274 276 277 272 271 275 276 276 279 281 279 279 282 284 282 275 264 251 243 240 238 239 242 248 262 275 282 285 283 274 267 259 238 190 161 165 182
253 253 257 263 212 78 9 5 357 342 338 349 331 303 337 349 341 342 348 345 337 336 334 328 324 325 327 331 333 328 324 325 328 329 326 323 320 313 311 323 335 336 332 324 305 286 283 286 292 290 281 273 271 269 265 264 266 267 268 269 273 277 280 283 282 278 275 269 261 253 249 247 248 250 259 270 275 278 278 273 266 242 175 150 143 139 140
254 254 259 264 237 216 329 357 358 343 334 342 335 329 333 331 330 332 330 327 329 327 320 314 312 313 318 319 317 315 315 316 317 315 311 310 308 302 304 314 320 316 309 303 289 280 282 283 277 274 278 277 274 271 268 265 267 270 271 270 272 273 271 272 273 273 275 276 273 268 264 263 261 255 256 266 269 270 275 271 226 165 152 147 145 140 139
258 251 254 259 256 298 337 351 358 4 3 353 346 339 329 325 326 325 319 317 319 317 312 313 312 309 311 313 309 306 306 305 306 306 305 303 299 295 293 293 292 292 292 290 285 283 286 288 285 281 276 270 269 271 271 270 270 272 272 271 272 273 271 271 272 273 274 275 271 267 264 262 261 256 253 263 267 266 273 255 161 152 152 151 149 145 140
278 256 255 227 199 276 329 345 349 352 349 337 331 324 318 319 317 313 310 312 316 317 315 313 310 307 304 303 300 298 297 299 300 299 299 299 295 291 289 287 288 292 291 286 285 286 284 282 282 282 277 271 270 270 271 272 273 272 271 272 273 272 270 271 271 270 269 268 265 263 259 258 257 250 245 255 262 260 254 196 163 155 151 151 151 148 139
310 289 306 338 284 287 335 357 347 338 336 329 322 313 306 309 310 309 314 319 323 326 321 313 309 306 301 299 297 294 292 292 292 290 288 290 289 287 285 284 284 285 283 280 280 281 281 279 277 278 281 281 276 270 267 268 268 269 269 270 269 268 269 270 269 268 265 262 259 257 254 255 256 250 243 246 240 193 168 173 166 156 154 158 157 151 143
311 303 304 315 317 320 333 333 321 322 321 320 326 326 325 331 332 328 324 319 317 317 312 306 302 299 298 297 293 291 291 290 290 290 287 286 284 282 280 278 276 275 273 271 271 271 272 275 277 277 276 273 267 263 262 262 263 265 268 270 269 268 270 272 273 273 272 268 268 267 261 256 254 250 246 237 193 160 160 169 166 160 160 161 157 150 146
300 301 309 319 320 319 319 316 316 324 331 339 350 352 346 344 339 331 324 315 311 308 305 302 300 298 299 298 294 293 294 291 289 290 289 287 286 284 282 279 277 275 274 273 276 277 274 271 270 271 272 272 272 271 269 267 264 263 263 264 262 258 257 262 267 272 272 268 266 267 269 271 267 256 234 196 176 171 173 172 167 166 167 164 158 152 148
288 297 312 317 312 310 314 318 325 340 346 347 346 339 331 327 322 318 316 312 309 306 303 303 302 300 300 300 298 296 296 294 294 293 290 289 288 286 285 285 284 286 289 286 285 289 292 290 286 280 276 276 276 275 273 270 268 265 260 255 253 251 253 257 257 257 258 258 255 253 261 275 279 255 188 173 174 180 186 180 172 169 170 168 165 158 153
290 291 306 322 323 317 319 326 334 341 341 332 326 322 319 315 312 311 311 308 303 301 300 300 299 298 296 296 295 295 293 292 293 293 293 294 294 292 292 294 294 294 298 298 295 294 295 296 294 291 285 280 276 274 273 271 272 275 276 271 268 267 268 265 261 260 262 263 264 263 258 239 175 165 169 172 173 179 193 187 176 171 168 163 159 156 154
294 307 331 346 339 313 309 321 326 325 321 315 315 315 312 311 313 314 313 310 307 303 301 298 294 291 292 293 293 294 294 293 292 291 290 289 290 291 296 305 307 300 296 297 298 295 292 292 291 289 286 282 278 275 272 269 267 269 274 277 275 272 270 266 263 265 267 266 265 263 236 156 145 146 147 154 162 166 170 171 170 169 163 156 154 155 153
305 319 329 335 323 301 305 317 315 310 311 312 311 313 316 318 321 322 319 316 313 309 306 306 305 303 303 305 305 303 301 300 298 295 293 292 291 292 296 305 307 300 294 292 290 287 288 289 286 283 282 281 281 278 276 275 274 271 270 271 270 267 266 264 261 262 265 266 264 246 172 151 152 139 121 117 125 135 144 151 155 157 154 149 150 156 156
309 312 319 325 316 307 312 315 311 311 321 321 317 321 326 325 325 326 322 316 316 317 316 314 315 315 314 313 313 311 309 309 307 305 305 305 301 297 294 292 291 289 289 289 288 289 290 290 286 284 282 281 283 281 276 273 273 270 267 265 264 262 259 257 257 255 256 259 252 188 151 148 150 142 129 118 111 112 122 133 137 136 135 134 132 134 137
314 311 321 323 313 309 313 316 315 318 325 323 319 322 325 325 328 331 327 323 327 329 324 319 323 328 328 323 319 317 314 313 313 313 310 304 299 295 292 290 290 291 291 291 291 292 292 290 288 285 282 280 280 279 275 271 267 265 263 260 259 259 256 253 252 249 246 243 214 168 155 152 151 150 144 131 120 114 114 119 122 122 120 120 118 116 114
304 310 321 317 310 311 317 319 318 318 325 329 330 328 327 329 331 330 327 330 337 336 331 332 337 339 336 329 324 322 317 312 311 311 307 302 300 299 296 294 294 294 294 292 291 290 290 290 289 285 281 279 276 273 271 268 264 262 261 259 258 256 252 249 248 245 237 215 178 161 153 148 151 152 145 134 129 125 122 121 120 119 117 116 116 116 116
330 335 332 320 313 317 322 321 317 321 336 348 345 333 331 334 334 331 331 340 345 345 345 346 344 340 336 331 325 320 315 311 310 309 305 302 301 298 296 297 298 298 299 299 296 294 293 291 289 285 282 279 277 273 267 263 260 258 257 256 255 254 252 251 247 238 216 178 160 152 145 143 146 145 140 135 131 128 126 125 121 118 119 123 125 126 126
356 349 335 320 315 317 318 315 313 321 349 358 342 337 340 339 337 340 347 355 356 353 352 352 348 344 340 335 329 322 317 314 311 307 303 300 297 294 294 295 295 295 297 297 294 294 294 293 293 291 287 283 280 274 265 258 255 253 250 249 250 250 251 247 233 210 181 161 155 150 145 145 146 143 139 135 129 126 128 128 125 123 127 132 137 139 139
346 338 329 323 320 314 308 309 317 333 3 359 350 354 356 349 348 356 1 1 359 356 355 355 352 347 341 336 331 326 320 314 309 306 302 298 294 293 292 290 289 290 291 293 297 302 305 306 304 300 297 294 286 275 264 254 247 243 241 242 241 240 236 222 198 178 161 153 151 149 147 147 147 142 136 131 129 132 135 134 131 133 139 145 149 151 152
331 328 322 326 331 322 313 319 342 5 14 8 6 11 7 359 360 3 0 1 4 3 1 358 352 346 342 338 334 330 325 320 314 311 309 306 305 304 294 278 273 282 292 309 331 336 330 327 325 321 322 322 302 272 254 246 240 235 233 232 231 229 218 190 165 151 143 142 144 145 145 145 144 141 137 137 140 143 143 141 140 143 151 158 160 160 159
323 322 321 331 349 344 334 343 11 24 23 18 16 16 14 7 3 2 1 5 7 3 358 354 349 343 339 337 337 337 337 334 330 331 334 341 350 355 356 334 174 111 62 28 13 3 360 3 4 356 350 351 353 311 238 231 229 225 221 218 218 217 202 172 147 137 136 137 138 139 139 140 141 143 147 153 156 153 148 146 150 160 170 174 176 175 169
319 321 329 340 353 353 353 8 28 29 29 26 17 15 16 9 5 7 6 2 1 359 355 350 344 339 336 337 341 346 348 348 352 360 7 14 22 32 52 76 90 89 73 43 27 24 23 20 16 11 10 19 35 52 75 128 158 154 153 160 166 166 158 146 136 134 136 136 136 136 138 140 145 151 157 162 163 161 158 160 170 182 184 179 178 179 177
323 322 334 347 353 355 6 27 40 37 33 25 14 13 12 6 7 11 5 356 356 357 351 343 339 337 337 342 351 357 356 359 9 13 12 13 17 32 60 75 73 65 55 43 39 36 30 23 19 22 31 42 50 58 68 80 90 96 101 108 115 122 127 129 130 132 134 135 137 140 142 145 151 158 163 167 170 168 169 175 183 183 168 150 145 149 155
319 325 341 1 10 7 19 38 44 40 33 22 9 1 359 1 9 16 10 0 357 354 347 339 336 337 342 351 1 6 5 8 15 12 6 4 8 25 63 68 60 55 51 45 41 36 26 21 25 34 44 53 59 64 71 79 85 89 94 99 103 109 115 121 124 127 131 136 140 143 145 151 159 165 168 171 169 165 172 183 179 151 129 123 124 129 134
327 348 35 69 63 54 53 49 43 35 28 16 351 336 348 4 14 19 15 4 357 352 346 339 338 344 354 1 7 10 9 7 7 7 8 10 16 32 51 55 52 50 47 42 37 32 25 23 31 41 51 60 64 68 75 82 87 91 95 99 104 108 113 117 120 125 132 138 143 149 157 164 170 171 170 170 166 165 174 176 151 123 113 110 107 108 109
359 28 91 96 68 57 52 41 31 27 22 4 332 333 359 12 15 16 11 358 350 352 350 346 345 354 2 5 9 12 10 7 8 13 17 22 27 39 48 49 43 40 40 36 31 29 29 30 35 44 54 61 65 70 77 85 91 97 100 103 107 110 113 115 120 128 136 141 145 153 161 164 159 152 148 144 139 134 129 119 111 108 107 103 98 94 92
42 56 88 87 66 53 41 25 17 9 359 353 356 4 8 9 9 11 7 354 348 353 356 352 350 354 1 5 12 19 18 15 15 18 22 27 35 43 46 43 35 32 31 24 19 24 32 36 40 47 54 60 64 69 73 77 83 90 97 102 107 108 110 113 118 122 122 117 114 117 119 115 109 108 106 102 99 99 97 94 95 99 102 105 107 104 100
98 88 89 73 52 43 26 17 13 353 340 351 12 19 12 5 4 5 5 1 358 2 5 1 355 356 1 4 13 25 27 22 18 20 23 30 41 48 48 41 33 30 25 16 15 25 35 41 42 46 52 58 64 71 74 74 74 77 81 88 93 94 93 93 93 91 90 89 90 92 94 94 92 92 93 94 96 98 98 96 97 100 102 105 109 109 106
147 139 128 91 47 36 13 7 8 354 346 357 14 17 13 10 7 5 6 5 3 6 10 8 2 0 3 5 10 27 34 30 25 23 25 31 42 51 53 46 38 33 30 27 29 35 42 45 45 45 47 53 63 74 82 84 82 78 76 78 81 82 83 84 83 84 86 88 90 90 90 91 92 93 95 99 101 101 100 98 98 101 104 104 104 104 101
165 160 158 158 39 356 340 346 360 353 349 360 12 13 13 13 12 10 9 6 5 8 13 13 10 8 10 10 12 22 37 38 33 28 27 31 39 47 49 42 35 33 36 39 40 42 45 49 50 47 44 48 61 75 84 88 85 81 80 81 81 80 80 81 82 84 86 88 90 91 91 92 95 98 100 101 101 100 100 99 98 99 100 99 100 103 99
179 176 182 192 267 304 296 311 10 5 354 0 13 17 19 20 18 16 14 10 8 10 13 15 15 15 15 16 16 18 26 37 40 37 34 31 31 37 41 34 28 29 36 42 44 45 47 49 50 49 46 48 57 68 75 77 76 74 76 80 82 81 82 83 83 85 89 92 94 96 97 97 97 97 96 96 96 96 97 98 97 98 98 97 97 100 97
193 192 203 211 238 276 287 308 359 360 348 2 16 20 25 27 23 22 22 18 13 13 16 17 19 20 21 22 22 22 23 28 38 45 45 39 34 35 40 32 25 28 36 42 45 48 49 48 48 49 50 50 55 62 67 70 70 69 70 73 76 77 80 83 84 86 90 94 96 99 101 99 97 95 93 92 92 93 95 95 92 91 91 92 93 92 91
207 205 207 209 225 256 273 288 311 320 343 18 21 18 28 35 30 26 29 27 21 19 20 19 18 20 24 26 26 26 26 26 30 40 48 47 42 40 38 31 26 31 38 41 44 47 49 48 47 49 50 50 53 59 62 64 66 67 68 70 72 74 76 79 83 85 87 89 91 93 96 96 95 94 93 92 90 90 90 89 85 83 84 86 84 81 81
213 216 215 214 225 248 258 263 279 314 350 29 29 17 23 38 40 35 34 34 31 28 27 25 22 20 23 29 32 32 30 29 29 32 37 41 40 37 33 30 31 36 40 41 42 44 46 47 48 51 53 52 52 55 58 59 60 63 65 66 68 70 72 75 78 81 82 84 87 88 89 90 92 91 91 91 89 87 85 83 81 78 77 77 76 74 74
212 219 218 214 224 241 248 244 210 144 301 291 93 65 40 38 49 49 43 41 42 40 36 33 31 25 23 30 43 48 44 39 36 36 37 38 35 28 26 29 36 41 42 42 42 43 45 48 50 53 56 56 54 54 56 57 58 61 64 65 66 66 66 68 71 75 78 83 86 88 88 89 89 89 88 88 87 85 85 84 82 79 76 75 75 74 70
212 221 220 217 227 240 248 249 135 130 268 266 215 124 78 44 52 67 61 55 57 56 51 46 43 38 32 32 41 54 55 50 46 45 47 49 46 32 27 33 41 45 45 47 47 45 46 49 52 53 54 56 57 56 56 55 56 57 59 62 64 64 62 62 66 69 73 77 81 84 85 87 88 89 89 88 87 86 86 85 83 82 79 75 72 69 66
215 223 220 220 230 238 238 228 169 213 251 264 248 118 93 67 65 85 82 76 74 73 69 61 53 49 46 42 41 45 51 55 53 47 45 48 49 40 32 35 42 44 43 46 48 49 48 49 51 52 52 54 55 56 56 56 57 56 56 58 62 64 65 66 68 70 73 77 80 82 85 87 89 89 89 86 84 84 84 82 79 77 75 74 71 65 61
218 224 221 224 233 233 218 197 211 234 242 248 234 136 124 128 133 118 113 110 101 92 86 79 70 63 60 57 54 51 51 56 60 52 42 42 47 44 39 40 46 48 44 42 45 47 47 47 48 49 51 53 54 56 56 58 59 59 59 59 59 60 62 65 65 66 70 75 77 78 80 82 84 85 85 84 82 80 78 81 83 80 73 69 65 57 53
218 221 221 226 231 227 207 195 220 238 237 219 188 159 155 183 207 186 138 108 99 97 92 87 84 79 73 70 68 64 61 63 68 66 57 52 53 50 46 45 47 49 48 44 40 38 40 43 45 46 47 50 53 55 57 58 60 61 63 63 63 64 66 67 67 69 72 74 75 76 77 78 80 82 82 83 82 77 71 72 77 77 71 70 67 56 45
217 217 220 226 229 223 209 203 218 230 226 209 186 167 172 212 226 192 134 114 106 101 90 83 82 83 79 75 76 74 71 70 72 72 68 66 64 60 55 51 49 48 51 52 46 38 37 40 44 45 46 48 51 54 56 58 58 59 60 62 63 64 65 66 67 70 73 73 74 76 78 78 79 82 81 80 81 79 71 67 67 64 60 64 68 60 47
221 217 217 221 223 220 212 210 222 229 223 204 181 171 183 212 224 162 136 162 197 150 115 102 94 90 87 83 81 80 77 75 72 68 65 67 66 60 54 52 51 50 52 55 55 50 45 44 45 46 48 49 51 53 55 57 58 58 58 58 60 63 66 65 64 68 75 78 77 77 77 76 76 77 75 74 75 75 73 71 68 60 54 58 64 63 56
226 224 223 224 226 224 217 214 221 229 227 209 186 179 196 210 198 154 154 201 232 160 120 112 102 95 96 98 95 92 89 86 81 77 72 68 63 59 54 51 50 49 50 52 53 54 53 51 51 51 51 52 53 54 55 56 57 58 57 56 59 65 70 69 66 67 77 84 82 75 72 72 74 73 70 66 65 66 69 71 68 60 53 56 62 63 59
Height
749 745 743 740 741 741 739 740 742 741 740 742 745 746 743 743 755 757 744 743 750 746 739 738 737 739 742 738 738 741 741 740 744 748 749 747 747 749 752 755 756 757 758 758 758 760 762 764 767 769 772 774 775 776 777 777 778 779 780 780 781 782 782 783 785 786 787 787 788 789 790 791 792 793 793 793 792 793 796 799 802 804 804 805 806 807 806
749 745 742 739 740 742 742 741 739 738 738 739 740 739 736 738 746 746 741 745 748 741 738 737 733 734 737 736 737 739 738 739 742 745 745 745 745 746 749 753 757 759 760 760 760 760 761 764 767 769 772 774 775 777 778 779 779 780 780 781 781 782 782 783 784 785 786 787 788 789 789 790 791 791 792 792 792 793 795 797 799 800 801 802 803 803 802
755 748 745 744 742 742 742 741 738 737 738 740 741 741 738 740 744 741 741 748 749 741 735 735 735 735 734 735 738 738 737 738 739 741 742 744 744 743 745 749 754 759 762 762 762 761 762 764 766 769 771 773 775 777 778 779 780 780 781 782 782 783 783 783 784 784 785 787 788 788 789 789 790 790 790 791 792 793 794 795 796 797 798 798 799 799 799
764 754 750 748 743 740 742 743 743 743 743 743 743 742 741 743 745 745 748 753 750 742 737 738 740 740 741 742 743 743 741 738 739 742 741 742 744 744 744 746 750 757 762 763 764 764 764 766 767 769 771 773 775 777 778 779 780 781 782 782 782 783 783 784 784 785 785 786 787 787 788 789 789 789 790 791 792 793 793 794 794 795 795 796 796 797 797
767 756 750 749 748 753 754 749 746 747 745 743 742 739 738 740 743 749 753 751 747 745 745 745 747 749 751 750 749 749 747 742 741 744 742 741 742 744 745 745 749 756 760 763 766 766 766 767 768 770 771 772 775 776 778 779 779 781 781 782 782 783 783 784 784 785 786 786 786 786 787 788 789 789 790 791 792 793 793 793 794 794 794 795 795 796 795
770 760 754 757 763 768 760 746 741 743 744 744 745 745 744 742 743 746 747 743 745 749 749 748 750 753 754 754 752 750 748 746 744 744 745 744 744 746 748 747 749 756 760 764 768 768 768 769 770 771 772 773 775 777 777 778 779 780 780 781 781 782 783 784 784 785 785 785 785 786 786 787 789 789 790 791 792 792 792 793 793 793 793 794 794 795 794
769 762 763 773 776 765 750 740 738 738 739 742 746 749 749 746 747 749 748 747 749 752 751 750 750 751 753 755 755 752 750 750 748 747 749 750 749 751 753 753 755 759 763 766 769 770 771 771 772 773 773 774 776 776 777 778 779 779 779 779 780 781 782 783 783 784 784 785 785 786 786 787 788 789 790 790 791 791 791 791 792 791 792 792 792 793 793
769 769 772 776 770 752 741 742 745 744 744 747 752 756 756 753 753 755 755 755 756 756 756 754 752 751 753 755 757 755 753 754 755 754 755 755 756 757 758 760 763 764 765 768 770 771 773 773 773 773 773 775 776 776 776 777 778 779 779 779 780 780 781 782 782 783 783 784 785 786 786 787 788 788 789 789 789 789 789 790 790 790 790 790 790 791 792
772 774 772 767 761 754 752 756 760 761 761 760 762 767 765 758 756 758 759 759 761 761 762 762 759 756 757 761 762 758 757 758 758 759 759 759 760 763 765 767 768 769 769 770 770 772 774 774 774 774 774 775 776 776 777 777 777 778 778 779 779 780 781 781 781 782 783 783 784 785 786 787 787 787 788 787 788 787 787 787 788 788 788 789 789 790 790
771 773 773 770 768 769 769 768 766 766 768 766 765 769 769 764 763 765 764 764 766 768 769 769 767 764 765 770 772 767 763 763 761 762 763 761 762 768 771 772 772 773 772 771 770 772 773 774 775 775 776 776 776 777 777 777 777 777 777 778 778 779 780 781 781 782 782 783 783 784 785 785 786 786 786 786 786 786 786 786 786 786 787 787 788 788 788
771 774 778 776 775 779 780 774 768 766 768 768 766 770 775 776 773 771 770 771 773 775 775 774 773 772 774 778 779 773 770 769 767 766 766 765 765 768 771 772 773 772 770 770 772 772 773 774 775 775 776 776 776 777 777 777 777 777 777 778 778 778 779 780 780 781 781 782 782 783 783 784 784 784 785 785 785 785 785 784 784 785 785 786 786 786 787
772 775 778 772 773 784 785 777 773 771 769 769 773 780 785 786 782 777 776 778 778 779 780 780 778 778 779 780 780 777 774 773 772 771 770 770 769 769 769 770 770 769 769 770 772 773 774 774 774 774 775 776 776 777 777 777 777 777 778 778 778 778 779 779 780 780 780 781 781 781 781 782 782 783 783 783 784 784 783 783 783 783 783 784 784 785 787
772 776 780 773 775 790 790 780 777 776 771 774 786 793 792 789 786 783 781 782 782 782 783 783 782 781 780 780 780 779 778 777 776 775 774 774 773 772 771 770 769 769 770 771 772 773 773 773 773 774 774 774 775 776 776 776 777 777 777 777 777 778 778 778 779 779 779 779 779 779 780 780 780 781 782 782 782 782 782 782 781 781 782 782 783 785 787
774 776 779 774 778 792 792 782 778 778 779 787 794 794 791 789 787 785 784 783 783 783 784 784 784 783 782 781 781 781 780 780 779 778 776 775 775 775 773 772 771 771 771 772 772 772 772 772 773 773 773 774 774 774 774 774 775 776 776 776 776 776 776 777 777 777 777 778 777 777 778 778 779 780 780 780 781 780 781 780 779 779 780 782 783 785 787
778 779 782 784 789 792 787 782 782 783 788 793 792 789 789 788 787 787 785 784 783 784 784 784 785 784 784 784 783 782 781 780 779 779 777 776 776 775 774 773 773 772 772 772 771 771 771 771 771 771 772 772 772 772 772 773 774 774 774 775 775 775 775 775 775 775 776 776 776 776 776 777 777 778 778 779 779 779 779 779 778 779 780 781 783 785 786
784 784 784 790 796 790 783 784 787 787 788 789 787 787 788 787 787 787 785 783 783 783 784 785 785 785 785 785 784 782 781 780 779 778 777 776 775 774 774 773 772 772 771 771 770 770 770 770 770 770 770 769 769 770 771 771 772 773 772 773 773 773 773 773 773 774 774 774 774 774 774 775 775 775 776 777 777 777 778 778 778 779 780 781 783 785 786
785 783 780 782 786 783 781 785 787 786 787 787 786 787 786 785 785 785 784 785 785 785 786 786 786 786 785 784 784 782 780 778 777 776 775 775 774 773 772 771 771 770 770 769 768 768 768 768 768 768 768 768 767 767 769 770 770 770 770 770 771 771 771 771 771 771 771 771 771 771 771 772 772 772 773 774 775 775 777 778 778 779 780 782 783 785 786
782 782 780 779 781 781 782 785 786 786 787 787 786 787 787 787 788 787 787 788 787 787 788 786 785 785 784 783 782 781 779 776 775 774 773 772 771 771 769 768 768 767 766 766 765 765 765 766 766 766 766 766 765 765 766 767 767 767 768 768 768 768 769 769 769 769 768 768 768 768 769 769 770 770 770 771 773 775 776 777 778 780 781 782 783 785 786
789 789 785 782 785 786 785 785 785 786 787 788 790 791 792 792 792 791 791 790 788 788 788 786 785 784 783 782 781 779 777 775 773 772 771 769 768 767 765 765 764 763 762 761 761 761 761 762 763 763 763 763 763 763 763 763 764 765 765 765 765 765 766 766 767 767 767 766 766 767 767 767 767 768 768 769 771 773 775 776 777 779 781 783 783 784 785
791 791 788 786 788 787 786 787 788 789 792 793 793 793 794 793 793 793 792 792 791 789 788 788 787 785 783 783 781 779 777 775 772 771 769 767 766 764 762 762 761 759 759 758 758 758 759 759 760 760 761 761 761 761 761 761 761 761 760 760 760 761 761 762 763 764 764 764 764 764 765 766 766 766 767 769 770 772 774 775 775 777 780 782 783 784 784
792 791 790 790 792 791 790 791 792 793 795 795 794 795 795 794 793 793 792 792 792 790 790 789 789 787 785 783 782 779 777 775 773 771 769 767 765 763 761 760 758 757 757 757 757 757 757 758 759 759 759 759 759 759 758 758 758 757 756 756 756 756 757 758 759 760 761 761 762 763 763 763 765 766 768 769 769 771 772 774 775 777 779 781 782 783 784
797 794 793 796 800 800 796 795 796 797 796 795 795 795 794 793 793 792 791 791 790 789 788 787 786 784 782 780 779 778 775 773 772 770 768 766 764 762 760 760 758 757 757 757 757 757 757 758 758 758 758 757 756 756 755 755 754 754 754 754 754 754 755 755 756 757 758 758 760 761 761 762 764 767 768 768 768 769 771 773 775 777 779 780 781 783 784
801 798 798 800 803 802 799 797 798 796 795 795 794 794 794 793 792 792 791 790 788 787 786 784 783 781 780 778 777 776 774 772 770 768 766 764 762 760 760 759 759 759 758 757 757 757 757 757 757 756 755 754 754 753 752 752 751 751 751 751 751 752 752 753 754 755 756 757 758 759 759 761 765 767 768 768 769 770 771 773 776 778 779 780 782 784 785
804 802 802 802 803 802 800 798 796 795 794 795 794 793 794 793 793 792 792 790 788 787 785 783 782 781 779 777 776 775 773 771 769 767 766 763 761 760 759 758 758 758 757 756 755 755 754 754 753 753 752 751 750 750 749 749 748 748 748 749 749 749 750 751 751 752 754 755 756 757 759 761 764 767 767 768 770 772 773 775 777 778 780 781 783 785 787
806 804 802 802 802 801 799 797 796 794 795 795 794 793 793 793 793 793 791 789 788 787 785 783 781 780 778 776 775 773 772 770 768 767 765 762 760 759 757 756 756 756 755 755 754 752 751 751 750 750 748 747 747 746 746 745 745 745 745 745 745 746 747 748 749 750 751 753 754 755 757 760 763 766 766 767 768 771 774 776 778 780 782 783 784 786 787
804 802 800 800 799 798 797 796 795 794 794 794 794 794 793 793 792 792 790 789 788 786 785 783 781 780 778 776 774 773 771 769 767 765 762 760 758 757 755 755 754 754 753 753 751 750 749 748 748 746 744 742 742 742 741 741 741 741 741 741 741 742 743 745 746 747 748 750 752 753 756 759 762 765 766 767 768 770 773 776 778 780 782 784 785 786 788
802 801 801 801 800 797 797 797 795 794 794 795 795 795 793 792 792 791 789 788 788 786 786 784 782 781 779 777 774 773 770 767 765 763 760 758 756 755 753 752 751 751 751 749 748 747 746 745 744 741 738 737 736 736 735 735 735 735 735 736 737 738 739 741 743 744 746 748 750 752 754 758 762 764 765 767 769 771 773 775 778 780 782 784 786 788 789
803 803 803 803 802 799 798 797 795 794 795 796 795 794 793 793 792 791 789 789 789 788 787 786 784 781 779 777 774 772 769 766 763 761 759 756 754 752 751 750 749 749 749 748 746 745 744 742 740 737 733 731 730 729 728 728 728 729 730 731 733 735 736 738 740 741 743 746 750 752 753 756 761 763 764 766 769 772 774 777 779 781 783 785 787 789 790
803 803 803 803 802 799 797 796 795 795 796 796 794 794 795 794 793 792 792 791 790 789 788 786 785 782 779 777 774 771 768 765 762 759 757 754 752 750 748 748 747 747 747 746 745 744 742 739 737 733 728 725 722 720 719 720 721 722 723 726 729 731 733 735 737 739 741 744 748 751 753 756 759 763 765 768 771 773 776 779 781 783 785 786 787 789 791
802 802 802 800 800 799 798 796 797 797 797 796 795 795 796 796 795 794 794 793 792 791 789 787 785 782 780 777 774 771 767 764 760 757 754 751 749 748 746 745 745 746 746 745 745 743 740 738 734 730 725 720 716 713 712 713 714 715 717 720 724 727 731 733 735 737 740 744 748 751 754 757 760 762 766 770 773 776 778 780 781 783 785 786 787 789 790
802 801 801 799 799 799 799 798 798 797 797 797 797 797 797 797 796 795 794 793 793 792 790 788 786 783 779 776 773 770 766 762 759 756 753 750 748 746 744 743 743 745 745 745 744 742 738 735 731 727 723 719 714 710 708 708 709 711 713 716 719 723 726 730 732 736 741 746 750 752 755 758 761 764 767 771 774 777 778 779 781 783 784 786 787 788 789
803 801 800 800 800 799 799 799 798 798 798 799 798 798 798 797 797 796 795 794 794 792 791 789 786 783 780 777 774 770 766 762 759 756 752 751 749 747 746 745 745 745 745 744 742 740 736 733 731 727 724 721 716 712 709 708 708 709 711 714 717 720 723 727 731 736 742 748 753 755 756 759 762 766 769 772 774 776 777 779 781 782 784 786 787 788 789
805 802 801 802 801 800 800 800 800 800 800 800 799 799 798 797 796 796 796 795 794 793 791 789 787 784 781 778 774 770 766 762 759 756 754 753 752 751 749 748 746 745 744 743 741 739 737 736 734 731 727 724 720 716 713 712 711 712 714 716 719 722 726 729 733 739 745 751 755 756 758 761 764 767 770 772 774 776 777 778 780 782 783 785 786 787 788
804 803 803 803 803 802 802 801 801 801 801 801 800 800 799 797 796 796 796 795 794 793 792 790 787 784 781 778 775 771 767 763 761 760 759 757 755 753 751 749 746 744 743 742 741 740 740 739 737 734 731 728 725 723 721 720 719 719 721 723 725 729 732 735 739 744 749 754 756 758 761 763 765 768 771 772 774 775 776 777 779 782 783 784 785 786 787
802 803 803 803 803 803 802 801 801 801 801 802 801 799 798 797 796 796 796 796 795 794 792 790 787 785 782 779 775 772 769 767 766 765 762 759 757 754 750 747 746 745 744 744 744 744 743 742 739 737 735 733 731 730 729 729 728 729 730 732 734 736 739 742 745 748 752 755 758 760 762 764 766 768 770 772 773 774 776 778 780 781 782 783 785 786 787
802 802 803 803 803 803 802 801 802 801 801 801 800 798 797 797 796 796 796 795 794 793 791 789 787 785 782 780 777 775 773 770 768 765 762 760 757 754 750 748 748 748 748 748 748 748 747 745 743 741 740 738 737 737 737 736 737 737 738 739 741 743 745 747 750 753 756 758 760 762 763 765 767 768 770 772 773 774 776 777 779 780 781 783 785 786 787
803 803 803 803 803 803 803 802 802 802 801 800 799 797 797 796 796 795 795 794 793 792 790 788 787 785 783 781 779 777 774 771 768 765 763 761 758 755 752 752 753 753 752 753 753 752 750 749 747 746 745 743 743 743 743 743 743 744 745 746 747 749 750 752 754 756 758 759 761 762 764 766 768 770 771 772 773 774 776 777 778 780 782 784 785 787 788
803 803 803 803 803 803 803 802 802 801 800 798 797 797 797 796 795 794 794 793 792 791 790 788 787 785 783 781 779 777 775 773 771 768 766 764 761 758 756 758 759 759 759 760 759 756 754 753 752 751 750 749 749 748 748 748 748 748 749 750 751 752 754 755 756 757 759 760 762 763 765 768 769 771 772 773 774 776 777 779 780 782 784 785 786 787 788
803 803 804 803 803 803 802 801 801 801 799 798 798 797 797 797 795 794 794 793 792 790 789 788 787 785 783 781 780 779 778 777 774 771 769 767 765 763 763 765 766 766 765 765 763 760 759 757 756 754 754 754 754 753 753 753 753 753 754 754 755 756 757 758 758 760 761 763 764 766 768 770 771 772 774 775 776 778 779 780 782 783 785 786 787 788 789
801 802 803 803 803 802 801 800 801 800 799 799 798 798 797 797 796 795 794 793 792 791 790 788 787 786 784 782 781 780 779 778 777 775 772 770 768 767 767 769 770 769 768 767 765 764 762 760 758 758 758 757 757 758 758 757 757 757 757 758 759 760 760 761 762 764 765 767 768 769 771 772 774 775 776 777 778 780 781 782 783 785 785 786 787 788 789
800 801 802 802 802 801 800 799 799 799 799 798 798 798 797 797 797 796 795 794 793 792 791 790 789 787 786 785 784 782 781 780 779 777 775 773 772 771 771 773 774 773 771 769 767 766 765 763 762 761 761 760 760 760 760 760 760 760 761 761 762 763 764 765 766 767 768 770 771 772 774 775 776 777 778 779 780 781 782 784 785 786 786 787 788 789 790
798 799 800 801 801 800 799 797 797 798 798 798 798 798 798 797 797 797 796 796 795 793 792 791 790 789 788 787 786 784 783 782 781 780 779 778 777 776 776 778 778 776 774 772 770 768 767 766 766 765 765 764 764 763 763 763 764 764 764 765 765 766 767 768 769 770 771 772 773 774 776 777 777 778 779 780 781 783 784 785 786 787 787 788 789 790 790
797 798 799 800 800 799 798 796 796 797 797 797 797 798 797 797 797 797 796 796 796 794 793 793 791 790 789 788 787 786 785 784 783 783 782 782 782 781 781 781 781 779 777 775 773 771 770 770 770 769 769 768 768 767 766 766 767 767 768 768 769 769 770 771 772 773 774 774 775 776 777 778 779 780 781 782 783 784 785 786 787 788 789 789 790 791 791
796 796 797 798 798 798 797 795 795 796 796 797 797 797 797 797 797 797 797 797 796 795 795 794 793 792 791 790 789 788 788 787 786 786 785 785 785 784 784 784 783 781 780 778 777 776 775 774 774 773 773 772 771 770 770 770 770 771 771 771 772 772 773 774 775 775 776 776 777 778 779 779 780 781 782 784 785 786 786 787 788 789 790 790 791 792 792
794 794 795 796 797 796 795 793 793 795 796 796 796 797 797 796 797 797 797 797 797 796 796 795 794 793 793 792 791 791 791 790 789 789 788 787 788 788 788 787 786 784 783 781 780 779 779 778 777 776 775 775 774 774 774 774 774 774 774 775 775 775 776 776 777 777 778 779 780 780 781 782 782 783 784 786 787 787 788 789 790 790 791 792 792 793 793
792 793 793 794 795 794 793 792 792 794 795 794 794 795 796 796 796 797 797 797 797 797 797 796 796 795 794 794 793 792 792 792 792 792 792 791 792 792 791 789 788 787 786 784 783 783 782 782 780 779 779 778 777 777 777 777 777 777 777 778 778 779 779 779 780 780 780 781 782 782 783 784 785 786 787 788 788 789 790 790 791 792 792 793 793 794 794
791 791 791 792 793 792 791 792 793 794 794 793 792 793 795 796 796 796 797 797 797 797 797 797 797 796 796 795 795 794 794 794 794 794 794 794 794 793 792 791 790 789 788 787 786 786 785 784 783 782 782 781 781 780 781 781 781 781 780 781 781 782 782 783 783 783 784 784 785 785 786 786 787 788 789 789 790 791 791 792 793 793 794 794 794 794 795
789 789 789 791 790 790 790 791 792 793 793 792 792 792 794 795 795 795 796 796 796 796 797 797 797 797 797 797 796 796 796 795 796 796 796 796 795 795 794 793 792 791 791 790 789 789 788 787 786 785 785 784 784 784 784 784 784 784 784 784 785 785 786 786 786 787 787 787 787 788 788 789 789 790 790 791 792 792 793 794 794 795 795 795 795 795 795
787 787 788 789 788 787 788 790 791 791 790 790 791 792 793 794 794 794 794 795 795 795 796 796 797 797 797 797 797 797 797 797 797 797 798 797 797 796 796 795 794 793 793 792 792 791 790 789 789 788 787 787 787 787 787 787 787 787 788 788 788 788 789 789 789 789 789 789 790 790 791 791 791 792 792 793 794 794 794 795 795 796 796 796 796 796 796
785 785 786 787 786 785 786 788 789 789 788 788 789 790 792 793 792 792 793 794 794 795 795 796 797 797 798 798 798 798 798 798 798 798 798 798 798 797 797 797 796 795 795 794 794 793 792 791 791 790 790 790 790 790 790 790 790 790 790 790 790 791 791 791 791 791 792 792 792 793 793 793 794 794 794 795 795 796 796 797 797 797 797 797 796 796 796
782 783 784 784 784 783 784 786 787 786 786 786 788 789 791 791 790 791 792 793 793 793 794 796 797 797 798 798 799 799 799 799 799 799 799 799 799 798 798 798 797 797 797 796 796 796 795 794 793 793 792 792 792 792 792 792 792 792 792 792 792 792 793 793 793 794 794 794 794 795 795 795 796 796 796 797 797 798 798 798 798 798 798 797 797 797 797
780 781 782 782 782 781 782 783 784 784 784 785 786 788 789 789 789 790 792 793 793 793 794 795 796 797 798 799 799 799 800 800 800 800 800 800 800 799 799 799 799 798 798 798 798 798 798 797 796 796 795 795 795 795 795 795 795 795 795 795 795 795 795 795 795 795 795 795 796 796 797 797 797 798 798 798 799 799 799 799 799 799 799 798 798 798 798